Theta_e
288 288 287 287 287 286 286 285 285 285 284 284 284 284 283 283 283 282 281 280 280 280 280 280 280 281 281 281 281 282 282 282 282 282 282 282 282 282 282 282 282 282
287 287 287 287 286 286 285 285 284 284 284 284 284 283 283 282 282 281 280 280 280 280 280 280 280 280 281 281 281 281 281 281 281 281 282 282 282 282 282 282 282 282
287 286 286 286 285 285 285 284 284 284 284 284 283 283 283 282 281 280 280 280 280 280 280 280 280 280 280 280 280 280 280 280 281 281 281 281 281 281 281 281 281 281
286 286 285 285 285 284 284 284 284 284 284 283 283 282 282 281 280 280 279 279 279 279 279 279 279 279 279 279 279 280 280 280 280 280 280 280 280 281 281 281 281 281
286 285 285 285 284 284 283 283 283 284 284 283 282 281 280 280 279 279 279 279 279 279 279 279 279 278 279 279 279 279 279 279 279 279 279 279 280 280 280 280 280 280
285 285 284 284 284 283 283 283 284 284 283 282 281 280 279 279 279 279 279 278 278 278 278 278 278 278 278 278 278 278 278 278 278 278 278 279 279 279 279 279 280 280
284 284 284 284 283 283 283 284 284 283 282 281 280 279 279 279 278 278 278 278 277 277 277 277 277 277 277 277 277 277 277 277 277 277 277 277 277 278 278 278 279 279
284 283 283 283 283 283 283 283 283 282 281 280 279 279 278 278 278 278 277 277 277 277 277 276 276 276 276 276 276 276 276 276 276 276 276 276 276 276 276 277 277 277
283 283 283 283 282 283 283 283 282 281 280 280 279 278 278 278 277 277 276 276 276 276 276 276 276 276 275 275 275 275 275 275 274 274 274 274 274 274 274 275 275 275
282 282 282 282 282 283 283 282 281 280 280 279 279 278 278 277 277 276 276 276 275 275 275 275 275 274 274 274 274 273 273 273 273 273 273 273 273 273 273 273 273 273
282 282 282 282 282 282 282 281 280 279 279 279 278 278 277 277 276 276 275 275 275 274 274 274 273 273 273 273 273 272 272 272 272 272 272 272 272 272 272 272 271 271
281 281 281 282 282 282 281 281 280 279 279 278 278 277 277 276 276 275 275 274 273 273 273 273 272 272 272 272 272 272 271 271 271 271 271 271 271 271 271 271 271 271
281 281 281 282 282 281 281 280 279 279 278 278 277 277 277 276 275 275 274 273 272 272 272 272 272 272 271 271 271 271 271 271 271 271 271 271 271 271 271 270 271 271
281 281 281 281 281 281 280 279 279 278 277 277 278 278 277 276 275 274 273 272 272 272 272 271 271 271 271 271 271 271 271 271 271 271 271 271 271 271 271 271 271 271
281 281 281 281 281 280 279 278 278 278 278 278 278 277 276 276 275 273 272 271 272 271 271 271 271 271 271 271 271 271 271 271 271 272 272 272 272 272 272 272 272 272
281 281 281 281 280 279 278 278 278 278 278 278 277 277 276 276 275 273 271 271 271 271 271 271 271 271 271 271 271 272 272 272 272 273 273 273 273 273 273 273 273 273
281 280 280 280 279 278 278 278 278 278 278 277 276 276 276 276 274 272 271 270 270 271 271 271 271 271 271 271 272 273 273 273 273 273 273 273 273 273 273 273 273 273
280 280 280 279 278 278 278 278 278 277 277 276 276 276 275 274 272 270 270 270 270 270 270 270 270 271 271 272 272 273 273 274 274 274 274 274 274 273 273 273 273 273
280 280 279 278 277 278 277 277 277 276 276 275 275 275 274 272 270 270 269 269 270 270 270 270 270 270 271 271 272 273 274 274 274 274 274 274 274 273 273 273 273 273
279 279 278 277 277 277 277 276 276 275 275 274 274 274 272 270 269 269 269 269 269 270 269 270 271 271 270 271 272 273 274 274 274 274 274 273 273 273 273 273 273 273
278 277 276 276 276 276 276 275 275 274 274 273 273 272 270 269 269 269 268 269 269 269 269 269 270 271 270 271 272 273 274 274 274 273 273 273 273 273 273 273 273 274
277 276 275 275 275 275 274 274 274 273 273 272 271 269 269 269 269 268 268 269 269 269 268 268 270 270 270 271 272 273 273 274 273 273 273 273 273 274 274 274 274 274
276 276 275 274 274 274 273 273 273 272 271 270 269 268 268 268 268 268 268 269 269 269 268 267 269 270 270 271 272 273 273 273 273 273 273 273 274 274 274 274 274 274
275 275 274 273 273 273 273 272 272 271 270 270 269 268 268 268 268 268 268 269 269 268 268 267 268 270 270 271 272 273 273 273 273 273 273 273 274 274 274 274 274 275
274 274 274 273 273 273 272 272 271 270 269 269 268 268 268 268 267 267 268 269 269 268 268 268 268 269 270 271 272 273 273 274 273 273 274 274 274 274 274 275 275 276
275 274 274 274 273 273 272 271 270 269 268 268 268 268 268 267 267 267 268 270 269 268 268 269 269 269 270 271 272 273 273 274 274 274 274 274 275 275 275 276 276 275
Wind_Speed
28 27 25 24 23 21 21 20 19 19 18 17 15 13 13 12 12 14 15 16 16 16 17 17 17 17 16 15 15 15 16 16 17 17 17 18 18 19 20 21 22 22
29 27 26 25 24 22 22 22 22 21 19 18 16 15 14 13 14 15 15 15 16 16 16 16 16 16 16 16 15 15 16 17 17 18 18 19 19 20 21 22 23 24
29 28 28 26 25 24 24 24 23 22 20 18 17 16 14 14 14 15 15 15 15 15 16 16 16 15 15 15 15 15 16 17 18 18 18 20 20 20 22 22 23 25
31 30 29 28 26 25 24 25 23 21 20 18 17 15 14 14 15 15 15 15 15 16 15 15 16 15 15 15 15 16 17 18 19 18 19 20 20 21 23 23 25 27
32 30 30 29 27 26 25 25 23 21 20 17 15 14 13 14 14 14 14 14 15 15 14 15 15 15 15 14 14 16 17 17 18 18 19 21 21 22 23 24 26 28
32 31 31 30 29 29 27 25 23 21 19 16 15 14 14 14 14 14 14 14 14 14 14 14 15 14 14 14 14 16 17 17 18 18 20 22 22 22 23 24 26 28
33 32 32 31 30 30 28 25 23 20 18 17 15 15 14 14 14 15 15 14 14 14 15 15 14 14 14 14 14 16 17 18 18 19 20 21 23 23 24 25 26 28
34 34 33 32 31 29 28 25 22 20 19 17 17 16 16 15 15 15 14 13 14 15 15 15 15 14 14 14 15 16 17 17 17 18 19 21 22 23 24 24 25 27
35 34 34 33 31 30 27 25 22 20 19 18 18 17 16 15 15 14 13 13 14 15 15 15 14 14 14 14 15 16 17 18 18 18 19 20 21 22 23 23 24 26
36 35 35 33 31 30 27 24 22 20 19 19 18 17 15 14 14 13 13 13 14 15 15 15 14 13 14 15 15 16 17 18 18 19 19 20 21 22 22 23 24 26
36 35 35 34 31 29 26 24 22 21 20 19 17 16 14 14 13 13 13 14 15 15 14 14 14 14 14 15 16 16 17 18 18 19 20 20 21 21 21 23 25 26
36 36 35 34 31 28 25 24 23 21 20 18 17 16 15 14 14 14 14 14 15 14 14 13 13 14 14 15 16 16 17 18 18 19 19 20 20 21 22 24 26 27
36 36 35 33 30 27 25 24 23 21 19 18 17 16 15 15 15 15 14 14 14 14 13 13 13 14 14 15 15 16 16 17 17 18 19 20 21 23 24 25 27 29
35 35 33 31 29 27 24 23 22 21 19 18 17 15 16 16 15 14 14 14 14 13 12 12 13 13 14 14 15 14 15 15 16 18 19 20 21 22 24 25 27 29
34 33 31 29 28 26 24 23 22 21 19 18 16 15 15 15 14 14 14 13 12 12 11 11 12 13 13 13 13 13 14 15 17 18 19 20 20 22 24 25 27 29
34 33 31 30 29 27 25 24 22 20 19 17 15 15 15 14 13 13 12 12 11 10 10 11 12 13 14 13 14 14 16 17 18 20 21 21 21 22 23 25 27 28
35 34 32 31 29 27 25 23 22 20 18 16 15 15 14 13 12 11 11 10 10 9 10 11 12 13 13 14 15 16 17 19 20 21 22 22 21 21 23 25 27 28
36 35 32 31 29 27 25 23 21 19 17 16 15 14 13 12 11 10 10 10 9 9 9 11 13 14 14 15 16 16 17 19 21 21 22 22 21 22 25 27 29 31
37 35 33 30 28 27 25 22 20 19 17 16 15 13 12 11 11 11 11 10 8 8 10 12 14 15 14 15 16 17 18 19 21 22 23 23 22 24 27 30 30 32
36 35 32 30 28 26 24 22 20 18 17 15 14 13 12 11 11 11 11 9 8 8 10 13 15 15 14 15 17 18 19 20 22 23 23 23 24 26 29 30 31 33
35 34 31 29 27 25 23 22 20 18 17 15 13 12 11 11 10 10 11 9 8 9 11 14 16 15 14 15 17 18 20 21 21 22 22 24 25 26 28 31 33 34
35 33 31 29 27 25 23 21 19 18 16 14 12 11 11 10 10 10 9 8 8 10 11 15 17 15 13 15 17 18 20 20 20 22 23 25 27 28 29 32 35 35
34 33 31 28 27 25 22 21 19 17 15 14 13 12 11 10 10 9 7 7 9 10 12 15 17 15 13 15 17 18 20 21 21 22 24 26 29 30 31 32 35 36
32 31 29 27 25 23 21 19 17 16 15 14 13 12 11 9 8 8 6 7 9 11 12 13 15 14 13 15 17 18 20 22 22 22 24 28 31 33 35 36 35 34
29 28 26 24 22 21 19 17 16 14 13 13 12 10 9 8 7 7 6 7 9 11 10 11 13 14 14 14 16 18 20 22 23 22 25 30 32 32 34 32 29 28
29 27 25 23 21 19 17 15 14 13 12 12 11 9 7 7 8 6 6 7 8 9 10 10 13 14 14 14 16 18 20 22 23 24 27 31 31 29 30 30 30 32
Wind_Direction
201 202 203 204 206 208 211 214 216 219 224 229 234 238 243 250 257 263 269 274 277 279 279 280 280 281 277 272 272 271 270 271 271 270 269 268 268 267 267 267 266 265
199 200 202 203 205 208 212 216 217 220 225 230 234 238 244 251 257 262 267 271 273 274 276 277 279 277 272 269 270 270 270 271 270 270 270 268 269 269 268 268 267 265
196 198 200 201 204 207 211 215 217 221 225 229 233 238 244 250 255 259 261 264 265 268 271 273 272 269 267 267 269 270 270 270 270 271 271 270 270 269 269 269 268 267
194 196 199 200 202 205 209 213 216 219 223 228 233 238 243 248 253 258 261 263 266 269 270 271 273 271 269 269 270 272 271 270 271 272 272 271 269 269 269 269 268 267
193 195 198 199 200 203 207 210 213 217 222 226 231 235 239 245 249 254 258 261 265 269 268 268 272 272 270 270 270 271 271 271 271 271 271 271 269 269 269 268 267 267
192 194 197 198 199 202 205 208 211 216 220 224 227 230 233 237 241 246 252 257 259 260 262 264 268 269 267 268 270 270 270 270 272 271 270 270 270 269 268 267 268 268
191 193 195 197 199 202 204 207 210 214 219 223 224 226 229 231 237 244 250 252 252 253 257 260 263 263 264 266 268 270 270 270 272 272 271 271 272 271 268 267 268 269
190 192 193 195 197 199 202 205 209 214 218 222 223 226 229 232 238 244 245 245 248 252 255 256 258 260 262 263 264 266 268 269 270 271 272 273 272 272 271 270 270 271
189 190 191 193 194 197 200 203 208 213 217 220 224 226 229 234 238 238 237 240 247 250 252 254 255 257 258 260 261 263 266 267 267 268 270 271 271 272 273 273 274 274
188 188 189 191 192 195 199 203 206 211 215 219 223 225 227 231 234 234 236 242 246 248 250 252 254 257 260 262 262 263 266 267 268 268 267 269 269 270 273 275 275 275
186 186 187 189 190 194 198 201 204 209 214 218 220 223 226 228 231 234 239 243 244 246 248 251 258 264 264 265 265 264 266 267 268 268 268 268 269 270 273 275 275 275
183 185 186 188 190 193 197 201 204 207 212 216 218 221 225 229 233 238 243 246 247 249 253 258 267 270 267 269 269 267 267 268 268 269 269 270 272 274 276 276 274 273
182 184 185 187 189 192 196 201 205 206 208 212 216 222 228 232 238 243 246 248 250 253 258 264 270 271 271 274 272 268 268 269 270 272 275 276 276 278 277 275 272 271
181 183 184 185 188 191 194 199 203 204 207 212 218 225 232 236 240 242 244 247 252 258 264 270 273 275 276 275 270 268 269 271 273 276 279 278 277 277 275 273 271 269
178 179 180 183 186 189 193 197 200 204 208 215 221 226 232 237 239 242 244 248 255 264 269 272 274 277 280 275 270 270 272 275 279 280 281 280 278 279 278 276 273 272
175 176 179 182 185 189 193 196 199 204 209 214 220 226 231 237 240 242 245 248 255 263 268 271 271 277 281 274 270 275 278 282 285 284 283 282 279 280 281 279 277 276
174 176 178 182 186 189 192 196 199 204 208 213 219 224 230 235 239 240 243 245 251 260 268 273 275 280 283 275 273 280 285 287 289 287 285 284 281 282 284 286 285 284
174 175 177 181 184 188 192 195 199 202 207 212 216 220 227 233 236 237 237 239 246 259 270 276 281 286 284 277 279 287 290 291 291 289 288 286 285 285 287 288 288 288
174 175 177 179 183 188 191 193 197 201 205 210 214 218 223 228 231 231 232 235 244 261 273 279 287 293 287 281 287 293 294 295 292 288 287 286 285 287 288 288 288 288
174 175 176 178 182 186 188 191 195 199 203 207 210 214 218 222 227 230 232 239 252 269 279 284 292 299 293 287 294 299 299 299 295 290 289 287 285 284 285 286 288 289
173 174 174 177 181 183 185 189 193 196 199 203 206 211 217 222 227 232 238 250 271 286 289 292 299 304 296 291 298 302 304 304 299 294 291 288 286 282 280 283 286 286
173 173 173 176 179 181 183 186 190 193 195 197 199 206 215 223 228 236 246 264 286 295 293 294 302 308 301 296 301 306 308 307 302 297 294 291 290 288 284 284 285 285
175 174 174 175 177 179 181 184 188 190 191 193 196 201 210 220 230 240 256 278 292 298 294 292 300 312 310 302 305 309 311 310 304 300 298 294 293 293 290 288 287 284
176 175 174 174 175 178 181 183 186 188 189 192 196 200 206 216 229 243 266 290 296 300 298 288 296 312 313 304 307 312 313 312 307 303 300 297 296 296 295 291 287 284
173 173 173 173 175 179 181 183 186 188 188 191 196 199 202 214 227 244 276 301 304 308 305 290 294 308 310 304 309 314 315 313 311 306 302 300 297 295 295 294 290 290
171 173 174 176 178 180 181 184 185 186 188 191 193 192 197 214 227 245 289 317 321 315 308 296 294 302 306 307 311 315 316 316 313 308 303 301 299 298 301 304 304 304